View from above orbital plane
|
View from above satellite
|
Ground track
|
The orbit data is extracted from the following two-line orbital elements,
1 23705U 95058B 13142.90741159 -.00000067 00000-0 -99226-5 0 9809
2 23705 071.0231 266.9918 0011327 034.8962 325.2901 14.14961885906947
| Epoch (UTC): | 22 May 2013 21:46:40 |
| Eccentricity: | 0.0011327 |
| inclination: | 71.0231° |
| perigee height: | 834 km |
| apogee height: | 850 km |
| right ascension of ascending node: | 266.9918° |
| argument of perigee: | 34.8962° |
| revolutions per day: | 14.14961885 |
| mean anomaly at epoch: | 325.2901° |
| orbit number at epoch: | 90694 |
The dashed part of the orbit path shows where the satellite is in the earth's shadow,
|
|